Weather in Persirlany

Russia / Chuvash Republic     55°52′28″N   46°14′54″E
temp.,
°C
wind,
m/s
gust,
m/s
humid.,
%
clouds,
%
prec.,
mm/h
press.,
hPa
HPBL,
m
19 april, mon
mon1900:00+4ene6127475 0.0 1025501
03:00+2ene61264100 0.0 1026413
06:00+2ene71369100 0.0 1026519
09:00+4e81253100 0.0 1027771
12:00+6e91140100 0.0 10271358
15:00+7e81137100 0.0 10271587
18:00+6e7124394 0.0 10271238
21:00+3e715447 0.0 1028583
20 april, tue
tue2000:00+2e715497 0.0 1029472
03:000e714565 0.0 1029374
06:000e714595 0.0 1029426
09:00+6ese912430 0.0 10291005
12:00+8ese911360 0.0 10281327
15:00+9ese811350 0.0 10261508
18:00+8ese71241100 0.0 1025730
21:00+5ese71543100 0.0 1025625
21 april, wed
wed2100:00+5ese8164499 0.0 1023775
03:00+4se91949100 0.0 1020760
06:00+3se102065100 0.7 1018750
09:00+2se102082100 2.0 1017867
12:00+2se101988100 1.6 1017861
15:00+3se101787100 2.5 1016874
18:00+3sse91789100 0.1 1017729
21:00+4sse71591100 0.1 1018548
22 april, thu
thu2200:00+4s61294100 0.0 1019436
03:00+4sse4996100 0.0 1020301
06:00+4sse3797100 0.0 1021260
09:00+7s5785100 0.0 1021626
12:00+7s4790100 0.6 1021501
15:00+6sse2797100 2.6 1022330
18:00+7s369322 0.1 1023269
21:00+5sse229326 0.1 102421
23 april, fri
fri2300:00+4sse34955 0.0 102471
03:00+5sse359294 0.0 102493
06:00+5sse378871 0.1 1025155
09:00+11sse466688 0.1 1025383
12:00+15s56505 0.0 10241272
15:00+16s564169 0.0 10232303
18:00+12se5106774 0.0 1023328
21:00+10se5117843 0.1 1023273